Terminal Aerodrome Forecast
Issued by NWS Wakefield, VA

Home | Current Version | Previous Version | Text Only | Print | Product List | Glossary On
Versions: 1 2 3 4 5 6 7 8 9 10 11 12 13 14 15 16
000
FTUS41 KAKQ 211100
TAFORF
TAF
KORF 211134Z 2112/2212 23007KT P6SM BKN100
     FM211500 25007KT P6SM SCT100 BKN250
     FM212000 27005KT P6SM SCT100
     FM220200 32004KT P6SM BKN080
     FM220800 32005KT P6SM BKN050=

USA.gov is the U.S. government's official web portal to all federal, state and local government web resources and services.